User: anonymous   Login
Location: Oshawa
(43.9000°N, 78.8670°W)
Time: 12:39:27
(UTC-05:00)
Language:

CARTOSAT-1 - Orbit

View from above orbital plane
View from above orbital plane
View from above satellite
View from above satellite

Ground track
Ground track

The orbit data is extracted from the following two-line orbital elements,

1 28649U 05017A   18022.77733162 -.00000664  00000-0 -74423-4 0  9993
2 28649  97.8391  98.4696 0003415  61.9352 298.2238 14.83456859688536
Epoch (UTC): 22 January 2018 18:39:21
Eccentricity: 0.0003415
inclination: 97.8391°
perigee height: 616 km
apogee height: 621 km
right ascension of ascending node: 98.4696°
argument of perigee: 61.9352°
revolutions per day: 14.83456859
mean anomaly at epoch: 298.2238°
orbit number at epoch: 68853

The dashed part of the orbit path shows where the satellite is in the earth's shadow,  

DLR